Back to catalog

GORIZONT 17

AliveCommunicationsGEO
NORAD 19765·PAYLOAD·🇷🇺 Russia

Launched Jan 26, 1989 from Baikonur Cosmodrome

Loading…

TLE

FreshSource: Space-Track

Epoch: Sep 14, 2026, 11:01 UTC

1 19765U 89004A   26257.45933589 -.00000017  00000-0  00000-0 0  9996
2 19765  12.1694 332.7486 0019573 176.3919 217.2530  0.99066900136466

Track GORIZONT 17 in real time with AllMySat

Download on the App Store